This is the latest recevied weather packets stored in our database for station/object IT9FBN-3. If no packets are shown the sender has not sent any weather packets the latest 10 day(s).
| Time | Temp. | Humidity | Pressure | Rain* | Wind** | Luminosity | Snow |
|---|---|---|---|---|---|---|---|
| 1777348803 | 13.33° C | 82% | 1016.8 hPa | 0 mm | - | - | - |
| 1777348503 | 13.33° C | 82% | 1016.8 hPa | 0 mm | - | - | - |
| 1777348203 | 13.33° C | 82% | 1016.8 hPa | 0 mm | - | - | - |
| 1777347903 | 13.33° C | 82% | 1016.9 hPa | 0 mm | - | - | - |
| 1777347603 | 13.33° C | 82% | 1016.9 hPa | 0 mm | - | - | - |
| 1777347303 | 13.33° C | 82% | 1017 hPa | 0 mm | - | - | - |
| 1777347003 | 13.33° C | 82% | 1016.9 hPa | 0 mm | - | - | - |
| 1777346703 | 13.33° C | 82% | 1016.9 hPa | 0 mm | - | - | - |
| 1777346103 | 13.89° C | 81% | 1017 hPa | 0 mm | - | - | - |
| 1777345803 | 13.89° C | 82% | 1017 hPa | 0 mm | - | - | - |
| 1777345503 | 13.89° C | 82% | 1017 hPa | 0 mm | - | - | - |
| 1777344903 | 13.89° C | 82% | 1017.1 hPa | 0 mm | - | - | - |
| 1777343703 | 14.44° C | 81% | 1017.2 hPa | 0 mm | - | - | - |
| 1777343403 | 14.44° C | 81% | 1017.1 hPa | 0 mm | - | - | - |
| 1777341303 | 15° C | 80% | 1017.3 hPa | 0 mm | - | - | - |
| 1777340703 | 14.44° C | 82% | 1017.3 hPa | 0 mm | - | - | - |
| 1777339503 | 14.44° C | 79% | 1017.5 hPa | 0 mm | - | - | - |
| 1777338903 | 15° C | 78% | 1017.6 hPa | 0 mm | - | - | - |
| 1777334704 | 15.56° C | 76% | 1017.7 hPa | 0 mm | - | - | - |
| 1777334104 | 15.56° C | 77% | 1017.7 hPa | 0 mm | - | - | - |
| 1777333204 | 15° C | 78% | 1017.8 hPa | 0 mm | - | - | - |
| 1777329304 | 15.56° C | 77% | 1018.2 hPa | 0 mm | - | - | - |
| 1777328404 | 15.56° C | 78% | 1018.2 hPa | 0 mm | - | - | - |
| 1777313403 | 16.11° C | 77% | 1018.2 hPa | 0 mm | - | - | - |
| 1777312503 | 16.67° C | 76% | 1018.2 hPa | 0 mm | - | - | - |
* Rain latest hour (hover to see other rain measurements)
** Current wind speed in m/s (hover to see current wind gust speed)